Other Public Products
Issued by NWS Grand Forks, ND

Home | Current Version | Previous Version | Graphics & Text | Print | Product List | Glossary On
Versions: 1 2 3 4 5 6 7 8 9 10 11 12 13 14 15 16 17 18 19 20 21 22 23 24 25 26 27 28 29 30 31 32 33 34 35 36 37 38 39 40 41 42 43 44 45 46 47 48 49 50
000
FPUS83 KFGF 221910
OPUFGF
PRAIRIE TO PINES WEATHER ROUNDUP
NATIONAL WEATHER SERVICE EASTERN NORTH DAKOTA/GRAND FORKS ND
200 PM CDT FRI SEP 22 2017

 **SATELLITE DATA USED TO AUGMENT SKY COVER AT AUTOMATED STATIONS**
 *****  WEATHER ACROSS EASTERN NORTH DAKOTA  *****

CITY           SKY/WX    TMP DP  RH WIND       PRES   REMARKS
GRAND FORKS    CLOUDY    72  59  63 N10       29.73S
GRAND FORKS AF PTSUNNY   68  55  62 NE17G24   29.73F
GRAND CITY NWS NOT AVBL
BUXTON         NOT AVBL
DEVILS LAKE    LGT RAIN  58  45  62 NE14      29.78F
FARGO          CLOUDY    81  70  69 NW5       29.64F
WAHPETON ARPT  CLOUDY    82  70  65 S17G23    29.67S
$$

 *****  WEATHER ACROSS CENTRAL AND WESTERN NORTH DAKOTA  *****

CITY           SKY/WX    TMP DP  RH WIND       PRES   REMARKS
JAMESTOWN      CLOUDY    62  56  80 NE10      29.69F
BISMARCK       CLOUDY    53  46  77 N20G25    29.80R
MINOT          LGT RAIN  50  43  77 N16       29.90R
MINOT AFB      CLOUDY    49  43  78 N12       29.89S
GARRISON         N/A     48  40  73 N15G26    29.85R
WILLISTON      CLOUDY    50  40  68 N17       29.99F
DICKINSON      CLOUDY    50  38  63 N18G30    29.85F
HETTINGER      CLOUDY    50  38  63 N18G30    29.86R
$$

 *****  OTHER OBSERVATIONS NORTHEAST NORTH DAKOTA  *****

CITY           SKY/WX    TMP DP  RH WIND       PRES   REMARKS
WALHALLA       FAIR     N/A N/A N/A N16       29.80F
LANGDON        CLOUDY    59  45  58 NE23G30   29.81F
CAVALIER       CLOUDY    63  50  63 N16G22    29.77F
GRAFTON        CLOUDY    66  54  63 N15       29.77F
CANDO          CLOUDY    55  46  71 NE17G23   29.84R
FORT TOTTEN      N/A     59  46  60 NE5       29.95S
ROLLA          RAIN      46  46 100 N23G29    29.84F
RUGBY          LGT RAIN  48  46  93 N15G23    29.87R
 ***** THE ABOVE OBSERVATIONS ARE NON NWS ARE NOT QUALITY
        CONTROLLED AND MAY MIS-REPORT RAIN FOR SNOW...
$$

 *****  OTHER OBSERVATIONS SOUTHEAST NORTH DAKOTA *****

CITY           SKY/WX    TMP DP  RH WIND       PRES   REMARKS
COOPERSTOWN    CLOUDY    63  55  77 NE14G21   29.72F
VALLEY CITY    CLOUDY    66  63  88 NE13      29.70F
OAKES          NOT AVBL
GWINNER        MOCLDY    77  68  73 NE8       29.65F
SHEYENNE NWR     N/A     74  66  76 N7        29.95S
BUFFALO        NOT AVBL
WYNDMERE       NOT AVBL
 ***** THE ABOVE OBSERVATIONS ARE NON NWS ARE NOT QUALITY
       CONTROLLED AND MAY MIS-REPORT RAIN FOR SNOW...
$$

  *****  WEATHER ACROSS NORTHERN MINNESOTA  *****

CITY           SKY/WX    TMP DP  RH WIND       PRES   REMARKS
FLAG ISLAND    FAIR      66  55  68 NE12      29.81F
WARROAD        FAIR      68  61  77 NE15G23   29.80F
ROSEAU         FAIR      72  61  68 E18G24    29.78S
HALLOCK          N/A     72  54  53 NE14      29.76S
THF RVR FALLS  FAIR      77  66  68 E14G21    29.72F
HALSTAD        NOT AVBL
FOSSTON        FAIR      82  66  57 SE13      29.71F
BAUDETTE       CLOUDY    70  65  84 E14       29.79F
WASKISH        PTSUNNY   81  66  61 E9        29.75F
CROOKSTON      FAIR      77  64  65 E9        29.70F
$$
  *****  WEATHER ACROSS CENTRAL AND WEST MINNESOTA  *****

CITY           SKY/WX    TMP DP  RH WIND       PRES   REMARKS
BEMIDJI        CLOUDY    76  68  76 SE9G16    29.75F
PARK RAPIDS    CLOUDY    79  72  79 SE14      29.74F
WADENA         FAIR      81  72  74 S16       29.73F
DETROIT LAKES  CLOUDY    79  72  78 SE10      29.71F
MOORHEAD       FAIR      84  72  65 S15       29.65F
FERGUS FALLS   PTSUNNY   81  72  74 S20       29.68S
ELBOW LAKE     CLOUDY    79  73  81 E14       29.72S HAZE
MORRIS MN      FAIR      84  72  65 S20       29.69F
STAPLES        PTSUNNY   81  72  74 S14G20    29.75S
WHEATON        FAIR      86  70  58 SE16      29.68F HX  90
$$
  *****  WEATHER ELSEWHERE ACROSS MINNESOTA  *****

CITY           SKY/WX    TMP DP  RH WIND       PRES   REMARKS
DULUTH         FAIR      70  64  81 S10       29.86S
INTRNTL FALLS  CLOUDY    73  64  73 NE9       29.82F
ELY            FAIR      75  61  60 SE5       29.87F
CLOQUET        FAIR      73  64  73 SE8       29.85F
BRAINERD       CLOUDY    78  72  81 SE13G21   29.79F
HIBBING        PTSUNNY   74  65  73 VRB7G18   29.85S
ALEXANDRIA     PTSUNNY   82  72  71 SE16G28   29.75F
SAINT CLOUD    PTSUNNY   83  74  74 SE13      29.79F
MINNEAPOLIS    FAIR      91  72  53 S15G23    29.81F HX  98
$$

  *****  WEATHER ACROSS SOUTH DAKOTA  *****

CITY           SKY/WX    TMP DP  RH WIND       PRES   REMARKS
SIOUX FALLS    FAIR      89  73  59 S20G29    29.72S HX  97
BROOKINGS      FAIR      87  70  56 S23       29.72S HX  92
WATERTOWN      FAIR      85  70  60 S15G25    29.69S
HURON          FAIR      88  65  46 SW15G22   29.65R HX  90
SISSETON         N/A     87  72  60 S18       29.64F HX  93
ABERDEEN       FAIR      88  68  51 S14       29.61F HX  91
MITCHELL       FAIR      94  65  38 SW13G22   29.65S HX  96
PIERRE         CLOUDY    69  54  58 W20       29.69R
MOBRIDGE       CLOUDY    63  55  75 N22G30    29.65S
RAPID CITY     NOT AVBL
$$

  *****  SOME WEATHER IN NEARBY STATES *****

CITY           SKY/WX    TMP DP  RH WIND       PRES   REMARKS
GLASGOW MT     LGT RAIN  43  41  93 NW9       30.07S
GREAT FALLS MT LGT RAIN  37  34  89 NE12      30.05F
CHEYENNE WY    FAIR      66  37  34 NE15      29.88S
SCOTTSBLUFF NE FAIR      70  43  37 MISG      29.84S
OMAHA NE       FAIR      92  70  48 S22G33    29.82F HX  97
DES MOINES IA  FAIR      90  70  51 S21G28    29.91F HX  95
DAVENPORT IA   FAIR      90  67  46 S14       30.03F HX  93
CHICAGO IL     FAIR      93  62  35 SW10G17   30.04F HX  93
EAU CLAIRE WI  FAIR      91  67  44 S14       29.88F HX  94
LA CROSSE WI   FAIR      94  70  45 S18       29.91F HX 100
$$

  *****  SOME NATIONAL WEATHER *****

CITY           SKY/WX    TMP DP  RH WIND       PRES   REMARKS
LA GUARDIA NY  FAIR      80  58  46 N14G24    29.94F
RALEIGH NC     FAIR      87  62  43 VRB3      30.03F
ATLANTA GA     FAIR      85  64  49 N8        30.03F
NEW ORLEANS LA FAIR      90  71  53 NE9       29.95F HX  96
OKLAHOMA CITY  PTSUNNY   86  69  56 S14       29.95F HX  90
ALBUQUERQUE NM PTSUNNY   81  36  19 S23G31    29.94F
SALT LAKE CITY PTSUNNY   49  41  74 NW12      29.91S
LOS ANGELES CA FAIR      71  54  54 W12       29.87F
BOISE ID       CLOUDY    45  40  82 W8        29.95S
SEATTLE WA     FAIR      61  47  59 W8        30.06F
$$

*** WEATHER ACROSS MANITOBA...SASKATCHEWAN AND ONTARIO ***
                ***ONTARIO***

CITY           SKY/WX    TMP DP  RH WIND       PRES   REMARKS
GERALDTON      CLOUDY    68  66  94 S5        29.90S FOG
THUNDER BAY    CLOUDY    66  64  94 SW7       29.86F
SIOUX LOOKOUT  PTSUNNY   73  59  60 VRB3      29.88R
TORONTO        MOSUNNY   81  57  44 E10       30.12F
BIG TROUT LK   SUNNY     66  48  52 NW12G17   29.87R
PICKLE LAKE    NOT AVBL
DRYDEN         CLOUDY    73  59  60 NE7       29.87F
KENORA         CLOUDY    68  54  60 NE10      29.86F
$$
                *** MANITOBA***

CITY           SKY/WX    TMP DP  RH WIND       PRES   REMARKS
BRANDON        TSTM      50  46  87 NE13G20   29.92F
DAUPHIN        PTSUNNY   54  45  71 NE8       30.02R
ISLAND LAKE    CLOUDY    50  45  81 NW5       29.97R
PILOT MOUND      N/A     54  46  76 N20G25      N/A
THE PAS        CLOUDY    48  39  71 N8        30.02S
THOMPSON       CLOUDY    48  41  76 N7        30.00R
WINNIPEG       PTSUNNY   66  48  52 N21G28    29.84F
LYNN LAKE      PTSUNNY   45  37  76 NE9       30.08R
CHURCHILL      DRIZZLE   43  41  93 N20       30.02R
GILLAM         PTSUNNY   52  45  76 N14       29.94R
$$
                ***SASKATCHEWAN***

CITY           SKY/WX    TMP DP  RH WIND       PRES   REMARKS
ESTEVAN        LGT RAIN  46  45  93 N15       29.98F
KINDERSLEY     CLOUDY    45  37  76 N5        30.08S
LLOYDMINSTER   CLOUDY    43  39  87 E7        30.09F
PRINCE ALBERT  PTSUNNY   48  36  61 VRB2      30.08F
REGINA         CLOUDY    46  39  76 NW10      30.05R
YORKTON        CLOUDY    48  41  76 N7        30.03R



USA.gov is the U.S. government's official web portal to all federal, state and local government web resources and services.